STARLINK-32466, 61859

Orbit data source: Space-Track

STARLINK-32466, 61859 is a payload satellite owned by SpaceX/Seattle (US) in LEO that was launched on Thu, 07 Nov 2024 UTC via an FALCON 9 launch vehicle from the Air Force Eastern Test Range (AFETR). Payload-class satellites include a variety of spacecraft equipped with specific instruments for various scientific and technological missions. These include communications satellites like Starlink; space stations such as the ISS; scientific satellites like the Hubble; Earth observation satellites from companies like Planet Labs, Umbra, and HawkEye 360; GPS; miniature CubeSats for education and research; and military/defense satellites.

Loading next visibility...
Identifier
61859, 2024-202Q
Orbit
LEO
Country
Flag of USUS
Related business
Manufacturer
SpaceX/Seattle
Mission
Operational Commercial Communications
Bus & Motor
STARLINK V2M, Unknown motor
Mass
730 kg wet, ~700 kg dry
Launch date (UTC)
2024-11-07 (1 year ago)
Launch vehicle
FALCON 9
Launch site
Air Force Eastern Test Range (AFETR)
Object type
Payload
Rocket body
Debris
Shape & HBR
Box + 2 Pan, 17.7 m
Radar Cross Section
33.884 m², Large (>1 m²)

Expand to show TLE details & history
Last TLE update: 18 hours ago

TLE from 18 hours ago
0 STARLINK-32466
1 61859U 24202Q   25308.05720040 -.00001073  00000-0 -29491-4 0  9997
2 61859  43.0017 227.5088 0001192 260.2665  99.8052 15.27578861 56125
Epoch: 2025-11-04T01:22Z
TLE epoch observation values (Epoch: 2025-11-04T01:22:22.114Z)
Latitude
-0.00003°
Longitude
163.36694°
Altitude
482.967 km
Speed
7.626 km/s
True Right ascension
15h 10m 02s
True Declination
0° 00' 00"
Sunlit
Object was in daylight at epoch
Visualization orbit readout
Latitude
Unknown
Longitude
Unknown
Altitude
Unknown
Speed
Unknown
Apparent Right ascension
Unknown
Apparent Declination
Unknown
Sunlit
N/A
Visualization observer readout
Local Sidereal Time
15:00:15
Azimuth
Unknown
Elevation
Unknown
Doppler factor
Unknown
Orbital elements
Apogee altitude
485.815 km
Perigee altitude
484.179 km
Semi-major axis
6,863.134 km
Eccentricity
0.00012
Inclination
43.0017°
RAAN
227.5088°
Arg. of periapsis
260.2665°
True anomaly
99.81866°
Mean anomaly
99.8052°
Eccentric anomaly
99.81193°
Mean motion
3.81733 °/min
Orbital period
94.31 mins
BSTAR
-0.000029491
Loading maneuver chart data...
Computing Atmospheric mass density...
Loading historical data...
Loading historical data...
Loading historical data...
Loading historical data...
Loading historical data...
Loading historical data...
Loading historical data...

Documentation

Showing up to 5 results
|